STARLINK-2123, 47401

Orbit data source: Space-Track

STARLINK-2123, 47401 is a payload satellite owned by SpaceX/Seattle (US) in LEO that was launched on Wed, 20 Jan 2021 UTC via an FALCON 9 launch vehicle from the Air Force Eastern Test Range (AFETR). Payload-class satellites include a variety of spacecraft equipped with specific instruments for various scientific and technological missions. These include communications satellites like Starlink; space stations such as the ISS; scientific satellites like the Hubble; Earth observation satellites from companies like Planet Labs, Umbra, and HawkEye 360; GPS; miniature CubeSats for education and research; and military/defense satellites.

Loading next visibility...
Identifier
47401, 2021-005BE
Orbit
LEO
Country
Flag of USUS
Related business
Manufacturer
SpaceX/Seattle
Mission
Operational Commercial Communications
Bus & Motor
STARLINK, Unknown motor
Mass
260 kg wet, ~248 kg dry
Launch date (UTC)
2021-01-20 (5 years ago)
Launch vehicle
FALCON 9
Launch site
Air Force Eastern Test Range (AFETR)
Object type
Payload
Rocket body
Debris
Shape & HBR
Box + 1 Pan, 10.1 m
Radar Cross Section
13.562 m², Large (>1 m²)

Expand to show TLE details & history
Last TLE update: 3 days ago

TLE from 3 days ago
0 STARLINK-2123
1 47401U 21005BE  26170.56286172 -.00000115  00000-0  80476-5 0  9995
2 47401  53.1607 283.0294 0001321  69.6298 290.4845 15.31702646298999
Epoch: 2026-06-19T13:30Z
TLE epoch observation values (Epoch: 2026-06-19T13:30:31.252Z)
Latitude
-0.00005°
Longitude
172.6091°
Altitude
471.316 km
Speed
7.632 km/s
True Right ascension
18h 52m 07s
True Declination
0° 00' 00"
Sunlit
Object was in full shadow at epoch
Visualization orbit readout
Latitude
Unknown
Longitude
Unknown
Altitude
Unknown
Speed
Unknown
Apparent Right ascension
Unknown
Apparent Declination
Unknown
Sunlit
N/A
Visualization observer readout
Local Sidereal Time
23:07:15
Azimuth
Unknown
Elevation
Unknown
Doppler factor
Unknown
Orbital elements
Apogee altitude
471.893 km
Perigee altitude
470.084 km
Semi-major axis
6,849.126 km
Eccentricity
0.00013
Inclination
53.1607°
RAAN
283.0294°
Arg. of periapsis
69.6298°
True anomaly
290.47032°
Mean anomaly
290.4845°
Eccentric anomaly
290.47741°
Mean motion
3.82905 °/min
Orbital period
94.02 mins
BSTAR
0.0000080476
Loading maneuver chart data...
Computing Atmospheric mass density...

Documentation

Showing up to 5 results
|